• In Belgium
  • List of Countries
  • For 7 days
  • Water Temperature
  • Satellite Maps
  • Weather Map
  • Weather Widgets
  • user-avatar
    Login

    Hourly Weather Beveren

    Today, 22 October, Sunday

    Time Temperature Precipitation Wind Pressure Humidity
    00:00 +9°C° 0.1 mm 10 mps 755 mmHg 68%
    01:00 +9°C° 0.9 mm 10 mps 755 mmHg 73%
    02:00 +9°C° 0.9 mm 10 mps 755 mmHg 78%
    03:00 +8°C° 0.9 mm 10 mps 755 mmHg 84%
    04:00 +10°C° 0.4 mm 9 mps 755 mmHg 83%
    05:00 +10°C° 0.4 mm 8 mps 756 mmHg 82%
    06:00 +10°C° 0.4 mm 7 mps 756 mmHg 81%
    07:00 +10°C° 0.1 mm 8 mps 756 mmHg 78%
    08:00 +10°C° 0.1 mm 8 mps 757 mmHg 75%
    09:00 +10°C° 0.1 mm 8 mps 757 mmHg 72%
    10:00 +11°C° 0.2 mm 8 mps 757 mmHg 71%
    11:00 +11°C° 0.2 mm 8 mps 758 mmHg 70%
    12:00 +11°C° 0.2 mm 8 mps 758 mmHg 68%
    13:00 +11°C° 0.2 mm 8 mps 758 mmHg 68%
    14:00 +11°C° 0.2 mm 8 mps 758 mmHg 68%
    15:00 +11°C° 0.2 mm 7 mps 759 mmHg 68%
    16:00 +10°C° 0.3 mm 7 mps 759 mmHg 69%
    17:00 +10°C° 0.3 mm 6 mps 760 mmHg 70%
    18:00 +10°C° 0.3 mm 6 mps 760 mmHg 71%
    19:00 +10°C° 0 mm 6 mps 760 mmHg 72%
    20:00 +10°C° 0 mm 6 mps 761 mmHg 72%
    21:00 +10°C° 0 mm 6 mps 761 mmHg 73%
    22:00 +10°C° 0 mm 6 mps 762 mmHg 75%
    23:00 +10°C° 0 mm 5 mps 762 mmHg 76%

    Tomorrow, 23 October, Monday

    Time Temperature Precipitation Wind Pressure Humidity
    00:00 +9°C° 0 mm 5 mps 762 mmHg 78%
    01:00 +9°C° 0.1 mm 5 mps 763 mmHg 79%
    02:00 +9°C° 0.1 mm 5 mps 763 mmHg 80%
    03:00 +10°C° 0.1 mm 6 mps 763 mmHg 81%
    04:00 +9°C° 0.1 mm 5 mps 763 mmHg 83%
    05:00 +9°C° 0.1 mm 5 mps 763 mmHg 84%
    06:00 +9°C° 0.1 mm 5 mps 764 mmHg 86%
    07:00 +9°C° 0.2 mm 5 mps 764 mmHg 86%
    08:00 +10°C° 0.2 mm 5 mps 764 mmHg 86%
    09:00 +10°C° 0.2 mm 5 mps 764 mmHg 85%
    10:00 +12°C° 0.8 mm 5 mps 764 mmHg 87%
    11:00 +12°C° 0.8 mm 5 mps 764 mmHg 89%
    12:00 +12°C° 0.8 mm 5 mps 764 mmHg 90%
    13:00 +12°C° 1 mm 5 mps 764 mmHg 91%
    14:00 +12°C° 1 mm 5 mps 764 mmHg 92%
    15:00 +12°C° 1 mm 5 mps 764 mmHg 93%
    16:00 +13°C° 0.2 mm 5 mps 764 mmHg 93%
    17:00 +13°C° 0.2 mm 5 mps 764 mmHg 92%
    18:00 +13°C° 0.2 mm 5 mps 764 mmHg 92%
    19:00 +13°C° 0.3 mm 5 mps 764 mmHg 93%
    20:00 +13°C° 0.3 mm 5 mps 764 mmHg 93%
    21:00 +13°C° 0.3 mm 4 mps 764 mmHg 94%
    22:00 +14°C° 0.1 mm 4 mps 764 mmHg 94%
    23:00 +14°C° 0.1 mm 4 mps 764 mmHg 95%

    Day after tomorrow, 24 October, Tuesday

    Time Temperature Precipitation Wind Pressure Humidity
    00:00 +14°C° 0.1 mm 3 mps 764 mmHg 96%
    01:00 +14°C° 0.1 mm 3 mps 764 mmHg 96%
    02:00 +14°C° 0.1 mm 3 mps 764 mmHg 97%
    03:00 +14°C° 0.1 mm 3 mps 764 mmHg 97%
    04:00 +14°C° 0 mm 3 mps 764 mmHg 97%
    05:00 +14°C° 0 mm 3 mps 764 mmHg 97%
    06:00 +14°C° 0 mm 3 mps 764 mmHg 96%
    07:00 +14°C° 0 mm 4 mps 765 mmHg 95%
    08:00 +15°C° 0 mm 4 mps 765 mmHg 93%
    09:00 +15°C° 0 mm 5 mps 765 mmHg 91%
    10:00 +15°C° 0.4 mm 5 mps 765 mmHg 91%
    11:00 +16°C° 0.4 mm 5 mps 765 mmHg 92%
    12:00 +16°C° 0.4 mm 5 mps 766 mmHg 92%
    13:00 +16°C° 0.1 mm 5 mps 766 mmHg 91%
    14:00 +16°C° 0.1 mm 5 mps 765 mmHg 90%
    15:00 +16°C° 0.1 mm 5 mps 765 mmHg 89%
    16:00 +16°C° 0 mm 5 mps 766 mmHg 91%
    17:00 +15°C° 0 mm 5 mps 766 mmHg 92%
    18:00 +15°C° 0 mm 4 mps 766 mmHg 93%
    19:00 +15°C° 0 mm 4 mps 766 mmHg 93%
    20:00 +14°C° 0 mm 4 mps 766 mmHg 94%
    21:00 +14°C° 0 mm 4 mps 767 mmHg 94%
    22:00 +14°C° 0 mm 4 mps 767 mmHg 94%
    23:00 +13°C° 0 mm 4 mps 767 mmHg 94%

    25 October, Wednesday

    Time Temperature Precipitation Wind Pressure Humidity
    00:00 +13°C° 0 mm 4 mps 767 mmHg 94%
    01:00 +13°C° 0 mm 4 mps 766 mmHg 94%
    02:00 +13°C° 0 mm 4 mps 766 mmHg 94%
    03:00 +13°C° 0 mm 4 mps 766 mmHg 94%
    04:00 +13°C° 0 mm 4 mps 766 mmHg 93%
    05:00 +13°C° 0 mm 4 mps 766 mmHg 93%
    06:00 +13°C° 0 mm 5 mps 766 mmHg 93%
    07:00 +13°C° 0 mm 5 mps 766 mmHg 90%
    08:00 +14°C° 0 mm 5 mps 766 mmHg 87%
    09:00 +15°C° 0 mm 5 mps 766 mmHg 84%
    10:00 +16°C° 0 mm 5 mps 766 mmHg 80%
    11:00 +17°C° 0 mm 5 mps 766 mmHg 76%
    12:00 +19°C° 0 mm 5 mps 766 mmHg 72%
    13:00 +19°C° 0 mm 4 mps 766 mmHg 73%
    14:00 +19°C° 0 mm 4 mps 766 mmHg 73%
    15:00 +19°C° 0 mm 3 mps 766 mmHg 74%
    16:00 +17°C° 0 mm 3 mps 766 mmHg 79%
    17:00 +16°C° 0 mm 2 mps 766 mmHg 84%
    18:00 +15°C° 0 mm 2 mps 767 mmHg 89%
    19:00 +15°C° 0 mm 2 mps 767 mmHg 90%
    20:00 +14°C° 0 mm 2 mps 767 mmHg 91%
    21:00 +14°C° 0 mm 2 mps 767 mmHg 91%
    22:00 +13°C° 0 mm 2 mps 767 mmHg 92%
    23:00 +13°C° 0 mm 2 mps 768 mmHg 92%

    26 October, Thursday

    Time Temperature Precipitation Wind Pressure Humidity
    00:00 +13°C° 0 mm 2 mps 768 mmHg 92%
    01:00 +13°C° 0 mm 2 mps 768 mmHg 92%
    02:00 +12°C° 0 mm 2 mps 768 mmHg 93%
    03:00 +12°C° 0 mm 2 mps 768 mmHg 93%
    04:00 +12°C° 0 mm 2 mps 768 mmHg 93%
    05:00 +12°C° 0 mm 2 mps 768 mmHg 93%
    06:00 +10°C° 0 mm 2 mps 768 mmHg 93%
    07:00 +12°C° 0 mm 2 mps 768 mmHg 90%
    08:00 +13°C° 0 mm 2 mps 768 mmHg 86%
    09:00 +14°C° 0 mm 2 mps 769 mmHg 83%
    10:00 +16°C° 0 mm 2 mps 769 mmHg 78%
    11:00 +17°C° 0 mm 2 mps 768 mmHg 74%
    12:00 +18°C° 0 mm 3 mps 768 mmHg 69%
    13:00 +18°C° 0 mm 2 mps 768 mmHg 70%
    14:00 +18°C° 0 mm 2 mps 768 mmHg 72%
    15:00 +18°C° 0 mm 2 mps 768 mmHg 73%
    16:00 +16°C° 0 mm 2 mps 768 mmHg 78%
    17:00 +15°C° 0 mm 1 mps 768 mmHg 83%
    18:00 +13°C° 0 mm 1 mps 768 mmHg 88%
    19:00 +13°C° 0 mm 1 mps 768 mmHg 89%
    20:00 +13°C° 0 mm 1 mps 768 mmHg 90%
    21:00 +13°C° 0 mm 1 mps 768 mmHg 91%
    22:00 +13°C° 0 mm 2 mps 768 mmHg 92%
    23:00 +12°C° 0 mm 2 mps 768 mmHg 92%

    27 October, Friday

    Time Temperature Precipitation Wind Pressure Humidity
    00:00 +11°C° 0 mm 3 mps 767 mmHg 93%
    01:00 +11°C° 0 mm 3 mps 767 mmHg 93%
    02:00 +11°C° 0 mm 3 mps 767 mmHg 94%
    03:00 +11°C° 0 mm 3 mps 767 mmHg 94%
    04:00 +11°C° 0 mm 3 mps 767 mmHg 94%
    05:00 +11°C° 0 mm 3 mps 767 mmHg 94%
    06:00 +12°C° 0 mm 3 mps 767 mmHg 94%
    07:00 +12°C° 0 mm 3 mps 767 mmHg 92%
    08:00 +13°C° 0 mm 3 mps 767 mmHg 89%
    09:00 +14°C° 0 mm 3 mps 768 mmHg 86%
    10:00 +14°C° 0 mm 3 mps 768 mmHg 81%
    11:00 +16°C° 0 mm 3 mps 768 mmHg 76%
    12:00 +16°C° 0 mm 3 mps 768 mmHg 71%
    13:00 +16°C° 0 mm 3 mps 767 mmHg 71%
    14:00 +16°C° 0 mm 3 mps 767 mmHg 71%
    15:00 +16°C° 0 mm 3 mps 767 mmHg 70%
    16:00 +13°C° 0 mm 3 mps 767 mmHg 75%
    17:00 +13°C° 0 mm 2 mps 767 mmHg 80%
    18:00 +12°C° 0 mm 2 mps 767 mmHg 84%
    19:00 +10°C° 0 mm 2 mps 767 mmHg 86%
    20:00 +10°C° 0 mm 2 mps 767 mmHg 87%
    21:00 +10°C° 0 mm 2 mps 767 mmHg 88%
    22:00 +9°C° 0 mm 2 mps 766 mmHg 89%
    23:00 +9°C° 0 mm 3 mps 766 mmHg 90%
    Show more